Location: Cedar Brake
(32.2526°N, 97.8459°W)
Time: 20:37:01
(UTC+00:00)

Mugunghwa Rocket - Pass Details

Date: 22 April 2026
Orbit: 936 x 1371 km, 26.7° (Epoch: 21 May)

Event Time Altitude Azimuth Distance (km) Brightness Sun altitude
Rises 02:59:04 0° 247° (WSW) 3,633 7.5 -22.8°
Reaches altitude 10° 03:01:42 10° 241° (WSW) 2,725 6.7 -23.3°
Maximum altitude 03:08:00 48° 169° (S) 1,333 4.4 -24.4°
Enters shadow 03:08:36 47° 154° (SSE) 1,360 4.3 -24.5°
